User: anonymous
Location: Unspecified
(0.0000°N, 0.0000°E)
Time: 09:01:24
(UTC+02:00)
Language:

Cosmos 1538 Rocket - Orbit

View from above orbital plane
View from above orbital plane
View from above satellite
View from above satellite

Ground track
Ground track

The orbit data is extracted from the following two-line orbital elements,

1 14760U 84019B   14210.69701718  .00000102  00000-0  44411-4 0  3712
2 14760 074.0427 254.0666 0028167 010.0505 128.4741 14.35509970592396
Epoch (UTC): 29 July 2014 16:43:42
Eccentricity: 0.0028167
inclination: 74.0427°
perigee height: 753 km
apogee height: 793 km
right ascension of ascending node: 254.0666°
argument of perigee: 10.0505°
revolutions per day: 14.35509970
mean anomaly at epoch: 128.4741°
orbit number at epoch: 59239

The dashed part of the orbit path shows where the satellite is in the earth's shadow,  

DLR